一网星座-0252星 (ONEWEB-0252 )

导读 | 豆包AI

ONEWEB-0252是英国一网公司OneWeb星座中的一颗低轨宽带通信卫星,于2021年7月1日发射入轨。卫星运行在1200公里近地轨道,配备Ku/Ka波段天线,能为全球提供低时延高速互联网服务,覆盖航空、海事、应急响应等领域,是OneWeb构建全球无缝连接星座的重要组成部分,助力实现普惠卫星互联网接入目标。

基本信息
目录编号:
48970
目录名称:
ONEWEB-0252
国际标识:
2021-060D
轨道中心:
EARTH
卫星名称:
一网星座-0252星
卫星全名:
一网星座-0252星 (ONEWEB-0252 )
卫星状态:
在轨 (已飞行1717 天)
发射日期:
2021-07-01 UTC
国别 :
英国 (GB)
星等 :
--
轨道信息
数据来源 国际轨道数据 AOE轨道数据
星历时间 2026-03-14T06:27:14+0800
10小时前
查看轨道信息
2026-03-12T23:00:00+0800
1天前
查看轨道信息
半长轴 7575.897km 7575.9km
偏心率 0.000149 0.0001451
轨道倾角 87.900° 87.900°
近地点辐角 103.601° 101.591°
升交点赤经 247.713° 247.973°
平近点角 256.529° 170.289°
近地点 1196.631km 1196.663km
远地点 1198.889km 1198.863km
周期 109.373分钟 109.373分钟
每日圈数 13.165934 13.165928
详细信息
平衡模式:
三轴稳定
覆盖范围:
全球
运营商:
一网卫星公司
运营商所在国:
英国
制造商(研发单位):
一网卫星公司
制造商所在国:
英国
使用方式:
暂无
卫星简介
OneWeb卫星网络由648颗重约125公斤的微型卫星组成,运行在1200公里的轨道上。 每颗卫星都能够提供至少每秒8千兆位的吞吐量,以使用其高吞吐量的Ku频段有效载荷为家庭和移动平台提供互联网接入。该卫星仍在工作。
2D轨道图
3D轨道图
轨道高度分析图
轨道倾角分析图
轨道综合分析图
查看轨道综合分析图